Terminal Aerodrome Forecast
Issued by NWS Cleveland, OH

Home | Current Version | Previous Version | Graphics & Text | Print | Product List | Glossary On
Versions: 1 2 3 4 5 6 7 8 9 10 11 12 13 14 15 16 17 18 19 20 21 22 23 24 25 26 27 28 29
000
FTUS41 KCLE 080529
TAFCLE
TAF
KCLE 080529Z 0806/0912 24014G20KT P6SM BKN035
     FM080700 24012KT P6SM SKC
     FM081500 21014G20KT P6SM SCT250
     FM090500 21010KT P6SM BKN250=

USA.gov is the U.S. government's official web portal to all federal, state and local government web resources and services.